Content
SEND FEEDBACK

Daily
Averages
Monthly
Summary
United States of America

MAURICEVILLE, TEXAS


Home > North America > United States > Texas
Elevation: 20 feet     Latitude: 30 14N     Longitude: 093 44W

WEATHER
 
SELECT A DAY
Number of Records: 107,977;   Date Range: 8/25/05 - 7/21/14
 
SHARE

PRINT THIS DATA

[ ← Previous Day ]
WEATHER ALMANAC - APRIL 4, 2013
[ Next Day → ]
[ °C ]   °F
Weather ElementAverageHighLow
Temperature49.8 °F53.6 °F (1:35 pm)47.7 °F (4:35 am)
Dewpoint45.3 °F46.9 °F (12:35 am)43 °F (7:35 pm)
Humidity84.8 %95 % (3:15 am)74 % (4:15 pm)
Barometer30.09 in30.17 in (11:15 pm)30.03 in (4:35 am)
Wind Speed3.8 mph12.7 mph (2:35 pm)
Wind Gust19.6 mph (6:15 pm)
Weather ElementAverage
Visibility9.1 mi
Wind DirectionSSE (150.3 °)

Weather ElementTotal
Precipitation---
Heating Degree Days14.4 (Base 65)
Growing Degree Days0.7 (Base 50)
Averaged from 70 records on April 4, 2013
WEATHER CONDITIONS BREAKOUT
WIND DIRECTION BREAKOUT
WEATHER BY HOUR - APRIL 4, 2013
[ °C ]   °F
Local TimeTemperatureDewpointHumidityBarometerVisibilityWind DirectionWind SpeedGust SpeedPrecipitationEventsConditions
12:35 AM49.1 °F46.9 °F92 %30.07 in10.0 miNNW (340°)8.1 mphOvercast
12:55 AM49.1 °F46.6 °F91 %30.06 in10.0 miNNW (340°)3.5 mphOvercast
1:15 AM48.7 °F45.9 °F90 %30.05 in10.0 miNorth (350°)5.8 mphOvercast
1:35 AM48.7 °F46.4 °F92 %30.06 in10.0 miCalmOvercast
1:55 AM48.6 °F46.6 °F93 %30.05 in10.0 miCalmOvercast
2:15 AM48.6 °F46.4 °F92 %30.05 in10.0 miCalmOvercast
2:35 AM48.4 °F46.4 °F93 %30.05 in7.0 miCalmOvercast
2:55 AM48.2 °F46.6 °F94 %30.05 in5.0 miCalmOvercast
3:15 AM48.2 °F46.8 °F95 %30.05 in5.0 miCalmOvercast
3:35 AM48.2 °F46.8 °F95 %30.04 in3.0 miCalmOvercast
3:55 AM48.2 °F46.9 °F95 %30.04 in3.0 miCalmOvercast
4:15 AM48.2 °F46.9 °F95 %30.04 in3.0 miCalmOvercast
4:35 AM47.7 °F46.4 °F95 %30.03 in10.0 miCalmOvercast
4:55 AM47.8 °F46.4 °F95 %30.03 in10.0 miCalmOvercast
5:15 AM47.8 °F46.4 °F95 %30.03 in10.0 miCalmOvercast
5:35 AM48.2 °F46.4 °F93 %30.03 in10.0 miCalmOvercast
5:55 AM48.2 °F46.6 °F94 %30.03 in7.0 miCalmOvercast
6:15 AM48.0 °F46.2 °F93 %30.04 in10.0 miCalmOvercast
6:35 AM48.2 °F46.0 °F92 %30.06 in10.0 miNW (320°)3.5 mphOvercast
6:55 AM47.8 °F46.2 °F94 %30.06 in10.0 miCalmOvercast
7:15 AM47.7 °F46.4 °F95 %30.08 in10.0 miCalmOvercast
7:35 AM47.8 °F46.4 °F95 %30.08 in4.0 miCalmOvercast
7:55 AM47.7 °F46.4 °F95 %30.09 in7.0 miCalmOvercast
8:15 AM48.2 °F46.2 °F93 %30.11 in10.0 miCalmOvercast
8:35 AM47.8 °F45.9 °F93 %30.11 in5.0 miCalmOvercast
8:55 AM47.7 °F46.4 °F95 %30.12 in3.0 miCalmOvercast
9:15 AM48.2 °F46.4 °F93 %30.12 in10.0 miCalmOvercast
9:35 AM48.4 °F46.6 °F93 %30.13 in7.0 miCalmOvercast
9:55 AM48.4 °F46.4 °F93 %30.12 in7.0 miCalmOvercast
10:15 AM48.6 °F46.0 °F91 %30.13 in10.0 miCalmOvercast
10:35 AM49.1 °F46.6 °F91 %30.12 in10.0 miCalmOvercast
10:55 AM49.6 °F46.4 °F89 %30.12 in10.0 miNW (310°)9.2 mphOvercast
11:35 AM50.0 °F45.7 °F85 %30.13 in10.0 miWNW (300°)5.8 mph16.1 mphOvercast
11:55 AM51.1 °F46.4 °F84 %30.13 in10.0 miWNW (300°)6.9 mphOvercast
12:15 PM51.3 °F45.7 °F81 %30.12 in10.0 miNW (310°)10.4 mph17.3 mphOvercast
12:35 PM51.8 °F45.7 °F80 %30.11 in10.0 miWNW (300°)9.2 mph16.1 mphOvercast
12:55 PM53.1 °F45.9 °F77 %30.10 in10.0 miNW (320°)4.6 mphOvercast
1:15 PM53.2 °F46.0 °F77 %30.09 in10.0 miCalmOvercast
1:35 PM53.6 °F45.9 °F75 %30.09 in10.0 miNNW (330°)11.5 mph17.3 mphOvercast
1:55 PM52.3 °F45.3 °F77 %30.09 in10.0 miNW (310°)10.4 mphOvercast
2:15 PM52.7 °F45.5 °F76 %30.09 in10.0 miNW (320°)10.4 mph16.1 mphOvercast
2:35 PM52.7 °F45.1 °F75 %30.08 in10.0 miWNW (290°)12.7 mph17.3 mphOvercast
2:55 PM52.9 °F45.5 °F76 %30.08 in10.0 miNW (310°)4.6 mphOvercast
3:15 PM53.1 °F45.5 °F75 %30.08 in10.0 miNW (320°)11.5 mph16.1 mphOvercast
3:35 PM53.1 °F45.5 °F75 %30.07 in10.0 miNW (320°)8.1 mphOvercast
3:55 PM52.7 °F45.0 °F75 %30.07 in10.0 miWNW (300°)10.4 mph16.1 mphOvercast
4:15 PM52.7 °F44.8 °F74 %30.07 in10.0 miNW (310°)5.8 mph17.3 mphOvercast
4:35 PM52.2 °F45.0 °F76 %30.07 in10.0 miNW (320°)6.9 mphOvercast
4:55 PM52.0 °F44.8 °F76 %30.06 in10.0 miNNW (340°)8.1 mphOvercast
5:15 PM52.3 °F44.6 °F75 %30.07 in10.0 miNNW (340°)12.7 mph17.3 mphOvercast
5:35 PM52.2 °F44.6 °F75 %30.06 in10.0 miNW (320°)9.2 mph17.3 mphOvercast
5:55 PM52.0 °F43.9 °F74 %30.08 in10.0 miNW (320°)8.1 mphOvercast
6:15 PM51.3 °F43.9 °F76 %30.08 in10.0 miNW (310°)5.8 mph19.6 mphOvercast
6:35 PM51.1 °F43.3 °F75 %30.09 in10.0 miWNW (300°)10.4 mph19.6 mphOvercast
6:55 PM50.9 °F43.3 °F75 %30.08 in10.0 miNNW (330°)9.2 mph16.1 mphOvercast
7:15 PM50.5 °F43.2 °F76 %30.09 in10.0 miNNW (330°)5.8 mph16.1 mphOvercast
7:35 PM50.2 °F43.0 °F76 %30.10 in10.0 miNNW (330°)12.7 mph16.1 mphOvercast
7:55 PM50.0 °F43.0 °F77 %30.10 in10.0 miNW (320°)9.2 mph17.3 mphOvercast
8:15 PM49.8 °F43.0 °F77 %30.11 in10.0 miNW (320°)4.6 mphOvercast
8:35 PM49.6 °F43.0 °F78 %30.12 in10.0 miNW (320°)4.6 mphOvercast
8:55 PM49.5 °F43.0 °F78 %30.13 in10.0 miCalmOvercast
9:15 PM49.5 °F43.2 °F79 %30.14 in10.0 miNW (320°)6.9 mphOvercast
9:35 PM49.5 °F43.2 °F79 %30.15 in10.0 miCalmOvercast
9:55 PM49.3 °F43.3 °F80 %30.16 in10.0 miCalmOvercast
10:15 PM49.3 °F43.5 °F81 %30.16 in10.0 miCalmOvercast
10:35 PM49.1 °F43.7 °F82 %30.16 in10.0 miCalmOvercast
10:55 PM49.1 °F43.7 °F82 %30.16 in10.0 miCalmOvercast
11:15 PM49.1 °F43.7 °F82 %30.17 in10.0 miCalmOvercast
11:35 PM49.1 °F43.9 °F82 %30.17 in10.0 miCalmOvercast
11:55 PM49.1 °F43.7 °F82 %30.17 in10.0 miCalmOvercast
Hourly data recorded from KORG, located miles away from Mauriceville, Texas







STORIES FROM OUR PARTNERS